VOE6FN LFST-LFMN

Flight info

Callsign VOE6FN
Flight time 1h 4m
Altitude 35000
Route LUPEN Y711 NATOR DCT TRA DCT RIPUS DCT GERSA DCT SOSON DCT ODINA DCT ENOBA/N0403F190 Z185 BORDI
Aircraft A320/M-SDE3FGHIRWY/LB1

Departure

Time 2026-05-06 08:27
Airport Strasbourg Airport (LFST)

Arrival

Time 2026-05-06 09:32
Airport Nice-Côte d'Azur Airport (LFMN)
Time Latitude Longitude Altitude Speed Heading
2026-05-06 07:58 48.54395 7.62821 507 ft 0 kts 319°
2026-05-06 08:19 48.54392 7.62826 507 ft 3 kts 319°
2026-05-06 08:19 48.54371 7.62851 507 ft 4 kts 327°
2026-05-06 08:20 48.54347 7.62871 507 ft 4 kts 340°
2026-05-06 08:20 48.54340 7.62875 507 ft 0 kts 343°
2026-05-06 08:22 48.54342 7.62876 507 ft 0 kts 358°
2026-05-06 08:22 48.54350 7.62896 507 ft 6 kts 56°
2026-05-06 08:23 48.54373 7.62956 507 ft 6 kts 60°
2026-05-06 08:23 48.54384 7.63026 506 ft 8 kts 108°
2026-05-06 08:23 48.54346 7.63117 506 ft 12 kts 132°
2026-05-06 08:23 48.54310 7.63235 506 ft 15 kts 72°
2026-05-06 08:24 48.54378 7.63363 505 ft 15 kts 49°
2026-05-06 08:24 48.54448 7.63485 501 ft 16 kts 49°
2026-05-06 08:24 48.54515 7.63599 501 ft 12 kts 49°
2026-05-06 08:24 48.54565 7.63684 501 ft 10 kts 48°
2026-05-06 08:25 48.54611 7.63762 500 ft 10 kts 49°
2026-05-06 08:25 48.54647 7.63831 501 ft 7 kts 52°
2026-05-06 08:25 48.54650 7.63874 502 ft 3 kts 133°
2026-05-06 08:25 48.54647 7.63879 502 ft 0 kts 134°
2026-05-06 08:26 48.54646 7.63881 501 ft 1 kts 134°
2026-05-06 08:26 48.54641 7.63889 501 ft 3 kts 133°
2026-05-06 08:26 48.54598 7.63954 499 ft 15 kts 137°
2026-05-06 08:26 48.54523 7.64002 493 ft 10 kts 221°
2026-05-06 08:27 48.54445 7.63870 493 ft 37 kts 228°
2026-05-06 08:27 48.54111 7.63306 505 ft 106 kts 229°
2026-05-06 08:27 48.53487 7.62236 569 ft 154 kts 228°
2026-05-06 08:27 48.52769 7.61004 1165 ft 159 kts 228°
2026-05-06 08:28 48.52034 7.59739 1861 ft 165 kts 228°
2026-05-06 08:28 48.51274 7.58425 2583 ft 172 kts 230°
2026-05-06 08:28 48.50453 7.56987 3122 ft 189 kts 230°
2026-05-06 08:28 48.49561 7.55379 3418 ft 214 kts 231°
2026-05-06 08:29 48.48531 7.53558 3669 ft 243 kts 229°
2026-05-06 08:29 48.47377 7.51569 4221 ft 257 kts 228°
2026-05-06 08:29 48.45975 7.49854 5016 ft 264 kts 207°
2026-05-06 08:29 48.44201 7.49064 5843 ft 271 kts 186°
2026-05-06 08:30 48.42314 7.49373 6689 ft 277 kts 163°
2026-05-06 08:30 48.40631 7.50807 7569 ft 283 kts 140°
2026-05-06 08:30 48.39441 7.53188 8380 ft 291 kts 115°
2026-05-06 08:30 48.39039 7.56173 9258 ft 297 kts 90°
2026-05-06 08:31 48.39342 7.59269 10049 ft 301 kts 83°
2026-05-06 08:31 48.39518 7.62411 10781 ft 302 kts 91°
2026-05-06 08:31 48.39549 7.65574 11552 ft 304 kts 92°
2026-05-06 08:31 48.39622 7.68770 12315 ft 307 kts 89°
2026-05-06 08:32 48.39798 7.71982 13057 ft 310 kts 86°
2026-05-06 08:32 48.40019 7.75251 13530 ft 323 kts 91°
2026-05-06 08:32 48.39884 7.78709 13655 ft 341 kts 103°
2026-05-06 08:32 48.39194 7.82206 13791 ft 357 kts 117°
2026-05-06 08:33 48.37905 7.85481 13910 ft 372 kts 127°
2026-05-06 08:33 48.36411 7.88724 14296 ft 381 kts 127°
2026-05-06 08:33 48.34905 7.92033 14837 ft 385 kts 126°
2026-05-06 08:33 48.33412 7.95402 15408 ft 389 kts 125°
2026-05-06 08:34 48.31922 7.98813 15970 ft 392 kts 125°
2026-05-06 08:34 48.28930 8.05684 17081 ft 400 kts 125°
2026-05-06 08:34 48.27396 8.09190 17626 ft 403 kts 125°
2026-05-06 08:35 48.25845 8.12716 18166 ft 406 kts 125°
2026-05-06 08:35 48.24280 8.16260 18648 ft 409 kts 126°
2026-05-06 08:35 48.22687 8.19805 19144 ft 411 kts 127°
2026-05-06 08:35 48.21065 8.23348 19603 ft 412 kts 127°
2026-05-06 08:36 48.19304 8.26721 20096 ft 411 kts 136°
2026-05-06 08:36 48.17170 8.29544 20548 ft 409 kts 146°
2026-05-06 08:36 48.14732 8.31730 20998 ft 408 kts 156°
2026-05-06 08:36 48.12084 8.33203 21454 ft 407 kts 166°
2026-05-06 08:37 48.09309 8.33999 21903 ft 407 kts 172°
2026-05-06 08:37 48.06508 8.34668 22340 ft 408 kts 172°
2026-05-06 08:37 48.03691 8.35342 22743 ft 410 kts 172°
2026-05-06 08:37 48.00872 8.36022 23140 ft 412 kts 172°
2026-05-06 08:38 47.98031 8.36712 23505 ft 414 kts 172°
2026-05-06 08:38 47.95186 8.37402 23820 ft 415 kts 172°
2026-05-06 08:38 47.92323 8.38090 24131 ft 417 kts 172°
2026-05-06 08:38 47.89461 8.38777 24443 ft 418 kts 172°
2026-05-06 08:39 47.86581 8.39470 24747 ft 419 kts 172°
2026-05-06 08:39 47.83700 8.40162 25047 ft 420 kts 172°
2026-05-06 08:39 47.80806 8.40858 25338 ft 422 kts 172°
2026-05-06 08:39 47.77906 8.41558 25623 ft 423 kts 172°
2026-05-06 08:40 47.74993 8.42252 25904 ft 424 kts 173°
2026-05-06 08:40 47.72086 8.42942 26181 ft 425 kts 173°
2026-05-06 08:40 47.69346 8.43591 26431 ft 425 kts 173°
2026-05-06 08:40 47.66417 8.44202 26690 ft 426 kts 175°
2026-05-06 08:41 47.63465 8.44686 26971 ft 425 kts 176°
2026-05-06 08:41 47.60532 8.45087 27308 ft 422 kts 177°
2026-05-06 08:41 47.57612 8.45457 27670 ft 420 kts 178°
2026-05-06 08:41 47.54704 8.45827 28019 ft 419 kts 178°
2026-05-06 08:42 47.52098 8.46175 28330 ft 417 kts 178°
2026-05-06 08:42 47.49212 8.46582 28706 ft 415 kts 177°
2026-05-06 08:42 47.46391 8.46998 29076 ft 413 kts 177°
2026-05-06 08:42 47.43498 8.47430 29453 ft 411 kts 178°
2026-05-06 08:43 47.40704 8.47846 29827 ft 409 kts 178°
2026-05-06 08:43 47.37881 8.48266 30151 ft 407 kts 178°
2026-05-06 08:43 47.35073 8.48682 30435 ft 405 kts 178°
2026-05-06 08:43 47.32266 8.49092 30730 ft 405 kts 178°
2026-05-06 08:44 47.29463 8.49501 31010 ft 404 kts 178°
2026-05-06 08:44 47.26666 8.49908 31314 ft 404 kts 178°
2026-05-06 08:44 47.23876 8.50312 31613 ft 403 kts 178°
2026-05-06 08:44 47.21089 8.50718 31893 ft 403 kts 178°
2026-05-06 08:45 47.18299 8.51127 32194 ft 402 kts 179°
2026-05-06 08:45 47.15520 8.51533 32461 ft 402 kts 179°
2026-05-06 08:45 47.12739 8.51936 32759 ft 401 kts 179°
2026-05-06 08:45 47.09966 8.52337 33026 ft 401 kts 179°
2026-05-06 08:46 47.07190 8.52735 33327 ft 400 kts 179°
2026-05-06 08:46 47.04415 8.53132 33584 ft 400 kts 179°
2026-05-06 08:46 47.01644 8.53530 33763 ft 400 kts 179°
2026-05-06 08:46 46.98875 8.53930 34019 ft 400 kts 179°
2026-05-06 08:47 46.96098 8.54332 34244 ft 400 kts 179°
2026-05-06 08:47 46.93323 8.54735 34461 ft 401 kts 179°
2026-05-06 08:47 46.90542 8.55136 34641 ft 402 kts 178°
2026-05-06 08:47 46.87769 8.55535 34794 ft 401 kts 179°
2026-05-06 08:48 46.84979 8.55937 34834 ft 404 kts 179°
2026-05-06 08:48 46.79334 8.56743 34836 ft 411 kts 179°
2026-05-06 08:49 46.73638 8.57565 34843 ft 411 kts 179°
2026-05-06 08:49 46.67940 8.58388 34856 ft 411 kts 178°
2026-05-06 08:50 46.62288 8.59192 34863 ft 410 kts 179°
2026-05-06 08:50 46.56606 8.59996 34872 ft 411 kts 179°
2026-05-06 08:51 46.50913 8.60804 34893 ft 411 kts 179°
2026-05-06 08:51 46.45232 8.61603 34874 ft 410 kts 179°
2026-05-06 08:52 46.39550 8.62403 34864 ft 409 kts 179°
2026-05-06 08:52 46.34839 8.63081 34866 ft 410 kts 179°
2026-05-06 08:53 46.29165 8.63888 34871 ft 409 kts 180°
2026-05-06 08:53 46.23604 8.64664 34872 ft 408 kts 180°
2026-05-06 08:54 46.17954 8.65437 34864 ft 408 kts 180°
2026-05-06 08:54 46.12342 8.66213 34865 ft 407 kts 180°
2026-05-06 08:55 46.06789 8.65747 34873 ft 399 kts 192°
2026-05-06 08:55 46.01297 8.64607 34874 ft 398 kts 192°
2026-05-06 08:56 45.95819 8.63496 34873 ft 397 kts 192°
2026-05-06 08:56 45.90350 8.62387 34877 ft 397 kts 192°
2026-05-06 08:57 45.84885 8.61275 34875 ft 396 kts 192°
2026-05-06 08:57 45.79424 8.60167 34876 ft 396 kts 192°
2026-05-06 08:58 45.74007 8.59076 34853 ft 395 kts 192°
2026-05-06 08:58 45.68564 8.57974 34853 ft 395 kts 192°
2026-05-06 08:59 45.63121 8.56870 34852 ft 395 kts 192°
2026-05-06 08:59 45.57680 8.55773 34876 ft 395 kts 192°
2026-05-06 09:00 45.52236 8.54684 34877 ft 395 kts 192°
2026-05-06 09:00 45.46796 8.53599 34871 ft 394 kts 192°
2026-05-06 09:01 45.41365 8.52508 34974 ft 394 kts 192°
2026-05-06 09:01 45.35935 8.51418 34971 ft 394 kts 192°
2026-05-06 09:02 45.30501 8.50333 34968 ft 394 kts 192°
2026-05-06 09:02 45.25071 8.49254 34952 ft 394 kts 192°
2026-05-06 09:03 45.19642 8.48169 34929 ft 394 kts 192°
2026-05-06 09:03 45.14209 8.47087 34908 ft 394 kts 192°
2026-05-06 09:04 45.08785 8.46016 34844 ft 394 kts 192°
2026-05-06 09:04 45.03396 8.44951 34844 ft 393 kts 193°
2026-05-06 09:05 44.97977 8.43890 34844 ft 393 kts 192°
2026-05-06 09:05 44.92556 8.42824 34843 ft 393 kts 193°
2026-05-06 09:06 44.87137 8.41751 34840 ft 393 kts 193°
2026-05-06 09:06 44.81726 8.40685 34832 ft 393 kts 193°
2026-05-06 09:07 44.76318 8.39624 34828 ft 392 kts 193°
2026-05-06 09:07 44.70921 8.38571 34825 ft 391 kts 193°
2026-05-06 09:08 44.65527 8.37526 34830 ft 391 kts 193°
2026-05-06 09:08 44.60219 8.36502 34833 ft 391 kts 193°
2026-05-06 09:09 44.54830 8.35453 34838 ft 391 kts 193°
2026-05-06 09:09 44.49439 8.34401 34837 ft 391 kts 193°
2026-05-06 09:10 44.44052 8.33364 34843 ft 391 kts 193°
2026-05-06 09:10 44.38661 8.32331 34677 ft 391 kts 193°
2026-05-06 09:10 44.35972 8.31809 34432 ft 390 kts 194°
2026-05-06 09:11 44.33393 8.30958 34194 ft 383 kts 203°
2026-05-06 09:11 44.30972 8.29460 33675 ft 378 kts 212°
2026-05-06 09:11 44.28821 8.27349 32646 ft 380 kts 222°
2026-05-06 09:11 44.27012 8.24654 31721 ft 382 kts 231°
2026-05-06 09:12 44.25492 8.21599 30799 ft 384 kts 233°
2026-05-06 09:12 44.23977 8.18514 29793 ft 388 kts 233°
2026-05-06 09:12 44.22471 8.15470 28649 ft 391 kts 233°
2026-05-06 09:12 44.20914 8.12342 27556 ft 393 kts 233°
2026-05-06 09:13 44.19349 8.09208 26478 ft 395 kts 233°
2026-05-06 09:13 44.17777 8.06062 25420 ft 397 kts 233°
2026-05-06 09:13 44.16195 8.02902 24405 ft 398 kts 234°
2026-05-06 09:13 44.14610 7.99742 23414 ft 399 kts 234°
2026-05-06 09:14 44.13020 7.96567 22268 ft 400 kts 234°
2026-05-06 09:14 44.11425 7.93377 21307 ft 400 kts 234°
2026-05-06 09:14 44.09847 7.90215 20538 ft 396 kts 234°
2026-05-06 09:14 44.08280 7.87081 19760 ft 393 kts 234°
2026-05-06 09:15 44.06716 7.83967 18988 ft 392 kts 234°
2026-05-06 09:15 44.05162 7.80884 18241 ft 388 kts 234°
2026-05-06 09:15 44.03616 7.77815 17444 ft 385 kts 234°
2026-05-06 09:15 44.02089 7.74780 16722 ft 382 kts 234°
2026-05-06 09:16 44.00557 7.71731 16401 ft 388 kts 234°
2026-05-06 09:16 43.99013 7.68662 16135 ft 389 kts 234°
2026-05-06 09:16 43.97459 7.65582 15880 ft 389 kts 234°
2026-05-06 09:16 43.95908 7.62506 15631 ft 388 kts 235°
2026-05-06 09:17 43.94359 7.59440 15375 ft 388 kts 234°
2026-05-06 09:17 43.92807 7.56375 15130 ft 388 kts 235°
2026-05-06 09:17 43.91259 7.53323 14882 ft 387 kts 234°
2026-05-06 09:17 43.89707 7.50265 14637 ft 386 kts 234°
2026-05-06 09:18 43.88155 7.47231 14401 ft 386 kts 233°
2026-05-06 09:18 43.86254 7.44629 14154 ft 387 kts 216°
2026-05-06 09:18 43.83832 7.42993 13920 ft 391 kts 199°
2026-05-06 09:18 43.81130 7.42546 13672 ft 397 kts 179°
2026-05-06 09:19 43.78453 7.43376 13412 ft 405 kts 161°
2026-05-06 09:19 43.76011 7.45467 13138 ft 411 kts 145°
2026-05-06 09:19 43.73789 7.47944 12874 ft 410 kts 144°
2026-05-06 09:19 43.71607 7.50399 12611 ft 409 kts 144°
2026-05-06 09:20 43.69557 7.53130 12348 ft 412 kts 134°
2026-05-06 09:20 43.67858 7.56335 12076 ft 415 kts 124°
2026-05-06 09:20 43.66456 7.59755 11817 ft 402 kts 123°
2026-05-06 09:20 43.65093 7.63053 11570 ft 388 kts 123°
2026-05-06 09:21 43.63764 7.66222 11318 ft 375 kts 124°
2026-05-06 09:21 43.62470 7.69265 11074 ft 360 kts 126°
2026-05-06 09:21 43.60945 7.71778 10951 ft 325 kts 143°
2026-05-06 09:21 43.59173 7.73448 10711 ft 297 kts 159°
2026-05-06 09:22 43.57314 7.74337 10186 ft 284 kts 174°
2026-05-06 09:22 43.55382 7.74525 9537 ft 275 kts 188°
2026-05-06 09:22 43.53524 7.74065 8829 ft 270 kts 201°
2026-05-06 09:22 43.51824 7.73033 8102 ft 265 kts 214°
2026-05-06 09:23 43.50370 7.71507 7402 ft 262 kts 226°
2026-05-06 09:23 43.49235 7.69599 6729 ft 259 kts 239°
2026-05-06 09:23 43.48441 7.67375 6043 ft 256 kts 251°
2026-05-06 09:23 43.48041 7.65005 5421 ft 251 kts 264°
2026-05-06 09:24 43.48036 7.62695 5220 ft 231 kts 276°
2026-05-06 09:24 43.48340 7.60629 5143 ft 210 kts 285°
2026-05-06 09:24 43.48869 7.58831 5092 ft 197 kts 295°
2026-05-06 09:24 43.49586 7.57251 5052 ft 196 kts 304°
2026-05-06 09:25 43.50504 7.55850 5009 ft 198 kts 314°
2026-05-06 09:25 43.51597 7.54683 4963 ft 200 kts 324°
2026-05-06 09:25 43.52779 7.53667 4921 ft 200 kts 324°
2026-05-06 09:25 43.53956 7.52649 4884 ft 200 kts 323°
2026-05-06 09:26 43.55138 7.51625 4832 ft 200 kts 324°
2026-05-06 09:26 43.56315 7.50604 4787 ft 200 kts 324°
2026-05-06 09:26 43.57475 7.49594 4742 ft 200 kts 322°
2026-05-06 09:26 43.58479 7.48305 4651 ft 197 kts 303°
2026-05-06 09:27 43.59269 7.46763 4378 ft 195 kts 302°
2026-05-06 09:27 43.60038 7.45251 4082 ft 191 kts 302°
2026-05-06 09:27 43.60796 7.43762 3798 ft 187 kts 302°
2026-05-06 09:27 43.61534 7.42314 3531 ft 182 kts 302°
2026-05-06 09:28 43.62254 7.40897 3284 ft 180 kts 302°
2026-05-06 09:28 43.62972 7.39481 3027 ft 179 kts 302°
2026-05-06 09:28 43.63680 7.38090 2777 ft 175 kts 302°
2026-05-06 09:28 43.64369 7.36739 2531 ft 166 kts 302°
2026-05-06 09:29 43.65003 7.35502 2321 ft 151 kts 301°
2026-05-06 09:29 43.65593 7.34345 2112 ft 145 kts 301°
2026-05-06 09:29 43.66172 7.33207 1912 ft 144 kts 301°
2026-05-06 09:29 43.66741 7.32074 1722 ft 142 kts 300°
2026-05-06 09:30 43.67291 7.30959 1501 ft 139 kts 301°
2026-05-06 09:30 43.67834 7.29851 1321 ft 139 kts 302°
2026-05-06 09:30 43.68377 7.28760 1150 ft 138 kts 302°
2026-05-06 09:30 43.68851 7.27625 935 ft 136 kts 292°
2026-05-06 09:31 43.68915 7.26366 691 ft 134 kts 246°
2026-05-06 09:31 43.68489 7.25226 545 ft 133 kts 238°
2026-05-06 09:31 43.67924 7.24189 373 ft 136 kts 227°
2026-05-06 09:31 43.67260 7.23278 192 ft 134 kts 224°
2026-05-06 09:32 43.66603 7.22364 32 ft 132 kts 225°
2026-05-06 09:32 43.66035 7.21577 20 ft 94 kts 225°
2026-05-06 09:32 43.65714 7.21137 22 ft 37 kts 224°
2026-05-06 09:32 43.65624 7.20986 25 ft 14 kts 263°
2026-05-06 09:33 43.65682 7.20881 21 ft 14 kts 337°
2026-05-06 09:33 43.65773 7.20866 21 ft 13 kts 355°
2026-05-06 09:33 43.65855 7.20851 21 ft 11 kts 349°
2026-05-06 09:33 43.65929 7.20833 21 ft 10 kts 351°
2026-05-06 09:34 43.65995 7.20820 21 ft 9 kts 350°
2026-05-06 09:34 43.66045 7.20808 21 ft 5 kts 351°
2026-05-06 09:34 43.66079 7.20800 21 ft 4 kts 343°
2026-05-06 09:34 43.66089 7.20766 21 ft 4 kts 270°
2026-05-06 09:35 43.66084 7.20735 21 ft 3 kts 260°
2026-05-06 09:35 43.66082 7.20715 21 ft 1 kts 261°
2026-05-06 09:35 43.66081 7.20707 21 ft 0 kts 261°
2026-05-06 09:35 43.66081 7.20706 21 ft 0 kts 261°
2026-05-06 09:36 43.66081 7.20703 21 ft 0 kts 261°